STARLINK-31840, 60127

Orbit data source: Space-Track

STARLINK-31840, 60127 is a payload satellite owned by SpaceX/Seattle (US) in LEO that was launched on Mon, 24 Jun 2024 UTC via an FALCON 9 launch vehicle from the Air Force Western Test Range (AFWTR). Payload-class satellites include a variety of spacecraft equipped with specific instruments for various scientific and technological missions. These include communications satellites like Starlink; space stations such as the ISS; scientific satellites like the Hubble; Earth observation satellites from companies like Planet Labs, Umbra, and HawkEye 360; GPS; miniature CubeSats for education and research; and military/defense satellites.

Loading next visibility...
Identifier
60127, 2024-118Q
Orbit
LEO
Country
Flag of USUS
Related business
Manufacturer
SpaceX/Seattle
Mission
Operational Commercial Communications
Bus & Motor
STARLINK V2M, Unknown motor
Mass
730 kg wet, ~700 kg dry
Launch date (UTC)
2024-06-24 (1 year ago)
Launch vehicle
FALCON 9
Launch site
Air Force Western Test Range (AFWTR)
Object type
Payload
Rocket body
Debris
Shape & HBR
Box + 2 Pan, 17.7 m
Radar Cross Section
33.884 m², Large (>1 m²)

Expand to show TLE details & history
Last TLE update: 11 hours ago

TLE from 11 hours ago
0 STARLINK-31840
1 60127U 24118Q   25354.84042419 -.00000722  00000-0 -12257-4 0  9997
2 60127  53.1612  33.0085 0001417  95.1686 264.9476 15.30193384 83627
Epoch: 2025-12-20T20:10Z
TLE epoch observation values (Epoch: 2025-12-20T20:10:12.650Z)
Latitude
-0.00009°
Longitude
0.79428°
Altitude
476.22 km
Speed
7.629 km/s
True Right ascension
02h 12m 02s
True Declination
0° 00' 00"
Sunlit
Object was in full shadow at epoch
Visualization orbit readout
Latitude
Unknown
Longitude
Unknown
Altitude
Unknown
Speed
Unknown
Apparent Right ascension
Unknown
Apparent Declination
Unknown
Sunlit
N/A
Visualization observer readout
Local Sidereal Time
05:47:56
Azimuth
Unknown
Elevation
Unknown
Doppler factor
Unknown
Orbital elements
Apogee altitude
476.462 km
Perigee altitude
474.52 km
Semi-major axis
6,853.628 km
Eccentricity
0.00014
Inclination
53.1612°
RAAN
33.0085°
Arg. of periapsis
95.1686°
True anomaly
264.93143°
Mean anomaly
264.9476°
Eccentric anomaly
264.93951°
Mean motion
3.82527 °/min
Orbital period
94.11 mins
BSTAR
-0.000012257
Loading maneuver chart data...
Computing Atmospheric mass density...
Loading historical data...
Loading historical data...
Loading historical data...
Loading historical data...
Loading historical data...
Loading historical data...
Loading historical data...

Documentation

Showing up to 5 results
|